Tracking 29967 objects as of 5-Dec-2024
HD Live streaming from Space Station
objects crossing your sky now

STARLINK-30247

Track STARLINK-30247 now!
10-day predictions
STARLINK-30247 is classified as:


NORAD ID: 57644
Int'l Code: 2023-122N
Perigee: 565.6 km
Apogee: 567.0 km
Inclination: 43.0 °
Period: 95.8 minutes
Semi major axis: 6937 km
RCS: Unknown
Launch date: August 17, 2023
Source: United States (US)
Launch site: AIR FORCE EASTERN TEST RANGE (AFETR)
Your satellite tracking list
Your tracking list is empty




NASA's NSSDC Master Catalog

Two Line Element Set (TLE):
1 57644U 23122N   24340.53012347  .00000634  00000-0  62044-4 0  9997
2 57644  42.9939  69.4643 0000968 156.1176 203.9712 15.02511729 73115
Source of the keplerian elements: AFSPC